Flag for Honduras Weather past 2 weeks in La Ceiba, Honduras

Now
75 °F

Partly cloudy.


Feels Like: 75 °F
Forecast: 77 / 90 °F
Wind: No wind

Location: La Ceiba Airport

Current Time: Sep 5, 2015 at 12:43:59 AM

Latest Report: Sep 4, 2015 at 11:00 PM


Visibility: N/A

Pressure: 29.92 "Hg

Humidity: 89%

Dew point: 72 °F

Location of La CeibaLocation

Historic Weather in La Ceiba — Graph

°F

La Ceiba temperature yesterday

Maximum temperature yesterday: 90 °F (at 10:00 AM)
Minimum temperature yesterday: 75 °F (at 6:00 AM)
Average temperature yesterday: 82 °F

Past Weeks' High & Low Weather Summary

 TemperatureHumidityPressure
High97 °F (Sep 2, 2:00 PM)100% (Aug 23, 6:00 AM)29.98 "Hg (Aug 23, 6:00 AM)
Low70 °F (Aug 21, 12:00 AM)53% (Sep 2, 2:00 PM)29.80 "Hg (Aug 28, 3:00 PM)
Average84 °F76%29.90 "Hg
* Reported Midnight between Aug 20 and Aug 21 — Sep 4 11:00 PM, La Ceiba, Weather by CustomWeather, © 2015

Note: Actual official high and low records may vary slightly from our data, if they occured in-between our weather recording intervals... More about our weather records

Advertising

La Ceiba weather history for previous 24 hours

 ConditionsComfort  
Time TempWeatherWind HumidityBarometerVisibility
11:00 PM
Fri, Sep 4
75 °FPartly cloudy.No wind89%29.92 "HgN/A
10:00 PM75 °FPassing clouds.3 mph89%29.92 "HgN/A
9:00 PM77 °FPassing clouds.2 mph83%29.89 "HgN/A
8:00 PM75 °FPartly cloudy.5 mph94%29.89 "HgN/A
7:00 PM77 °FPartly cloudy.3 mph94%29.89 "HgN/A
6:00 PM79 °FThunderstorms. Partly cloudy.No wind89%29.86 "HgN/A
5:00 PM82 °FThunderstorms. Broken clouds.6 mph79%29.86 "Hg2 mi
4:00 PM84 °FThunderstorms. Broken clouds.7 mph79%29.83 "HgN/A
3:00 PM86 °FBroken clouds.6 mph75%29.83 "HgN/A
2:00 PM88 °FBroken clouds.8 mph70%29.86 "HgN/A
1:00 PM88 °FScattered clouds.8 mph75%29.89 "HgN/A
12:00 PM90 °FBroken clouds.7 mph71%29.92 "HgN/A
11:00 AM88 °FBroken clouds.7 mph70%29.92 "HgN/A
10:00 AM90 °FBroken clouds.6 mph71%29.92 "HgN/A
9:00 AM88 °FBroken clouds.3 mph70%29.92 "HgN/A
8:00 AM84 °FBroken clouds.3 mph74%29.92 "HgN/A
7:00 AM79 °FBroken clouds.No wind89%29.89 "HgN/A
6:00 AM75 °FPartly sunny.No wind100%29.86 "HgN/A
12:00 AM79 °FPassing clouds.3 mph94%29.86 "HgN/A
Weather by CustomWeather, © 2015

See weather overviewHow to use our weather pages